Theta_e
348 348 349 349 348 348 350 352 351 352 351 351 350 350 349 349 349 348 346 346 345 336 335 337 336 335 343 337 340 340 340 340 340 341 341 341 341 342 342 343 343 344 345 344 345 345 343 342 342 342 347 348 349 333 328 329 330 335 335 336 340 333
347 347 348 348 348 347 349 349 347 348 348 348 349 349 346 343 348 340 347 343 337 340 336 333 334 344 339 339 340 342 341 340 341 340 341 341 342 342 343 343 344 345 345 345 343 334 334 338 340 342 344 344 338 335 331 330 330 329 336 334 339 336
347 347 348 348 348 347 346 345 345 345 347 348 348 347 342 344 338 337 339 338 340 338 335 337 338 341 342 345 340 343 342 342 341 341 341 342 343 343 343 344 344 344 344 343 329 325 327 327 328 339 339 334 332 333 334 332 329 329 334 335 337 340
345 346 346 346 347 347 346 345 343 344 345 343 342 344 339 338 338 337 338 336 338 337 338 334 346 347 349 341 336 345 344 343 343 344 343 339 340 341 343 342 341 342 340 334 327 326 328 326 327 328 330 330 331 332 333 333 330 330 331 336 338 340
344 345 345 346 346 346 346 346 345 344 342 341 341 340 339 338 336 336 336 337 336 338 338 334 332 335 336 334 332 332 331 329 328 328 340 330 330 331 331 329 330 332 326 326 327 326 326 327 328 328 328 329 330 331 332 333 331 330 330 330 337 341
342 343 344 344 344 346 346 344 344 343 341 340 340 339 337 338 336 336 336 337 339 336 334 334 332 333 335 332 332 333 333 332 330 332 335 333 333 332 331 331 331 331 329 326 326 325 324 329 326 326 326 327 328 330 331 332 331 331 331 330 332 342
340 342 342 344 344 345 344 344 344 344 342 341 339 337 336 336 338 336 336 338 338 334 333 332 331 332 334 333 334 334 334 335 335 334 336 333 334 334 333 333 332 333 331 330 329 327 325 325 324 325 325 325 327 329 331 331 331 331 331 330 334 341
338 339 340 342 342 341 342 343 343 344 342 343 340 338 335 337 338 338 338 337 340 334 332 332 332 331 334 333 335 335 336 334 335 336 335 337 334 332 331 331 332 332 333 332 330 329 328 328 326 325 326 328 328 329 331 331 332 332 332 331 332 338
337 338 338 339 339 338 338 340 341 343 341 344 339 338 337 336 336 335 336 336 337 333 330 330 330 332 331 333 333 336 337 337 336 336 333 334 334 334 333 332 332 332 331 331 329 330 331 332 332 332 331 331 330 329 328 329 330 330 330 330 330 333
337 338 338 338 337 335 336 338 339 340 340 343 339 338 335 333 333 332 331 334 335 332 332 331 331 330 330 330 331 334 336 336 336 334 333 335 334 333 333 333 333 334 335 332 332 334 336 335 335 334 331 331 332 331 329 328 328 327 327 330 330 332
337 338 337 336 335 334 335 337 338 339 338 339 339 338 335 332 331 330 332 335 335 336 333 332 332 332 332 332 332 332 333 333 332 332 334 335 333 335 334 334 333 332 332 330 333 332 333 333 332 334 333 334 333 332 331 330 329 330 328 329 330 330
336 337 336 335 336 333 333 335 337 337 336 337 337 335 332 331 334 330 335 335 335 334 336 332 333 333 332 331 329 329 331 331 331 332 335 333 333 335 333 334 334 333 333 332 331 331 330 329 330 332 332 333 332 332 331 331 331 331 329 329 329 330
336 336 334 334 335 333 333 334 335 335 335 336 334 332 332 332 333 336 336 336 335 336 336 334 333 333 339 329 329 330 331 332 333 333 333 335 336 332 331 332 331 331 330 328 328 329 332 328 327 330 330 332 331 332 332 331 332 331 331 330 329 329
335 335 334 334 334 333 332 332 334 334 336 335 334 334 335 335 338 335 333 332 333 335 336 336 334 333 332 330 329 330 330 331 334 333 334 334 330 330 330 330 331 328 333 328 327 327 327 329 328 328 329 330 330 331 330 331 331 331 330 330 329 328
336 334 335 334 334 332 333 336 336 336 336 336 335 335 334 335 334 333 332 332 334 337 336 336 336 332 332 329 329 329 331 332 334 333 332 331 330 330 330 329 328 329 326 326 326 329 328 327 326 328 329 330 330 331 329 330 331 331 331 331 330 329
334 333 334 334 333 335 336 336 337 338 335 334 335 335 334 334 333 332 332 333 335 337 334 333 334 332 331 331 330 331 332 334 335 333 332 331 332 331 328 329 328 327 326 327 327 327 328 327 327 328 329 329 329 330 329 328 329 330 331 330 330 330
333 332 333 334 335 336 336 336 336 335 334 334 334 334 334 333 333 333 333 334 334 336 332 333 334 334 332 332 331 330 332 335 336 333 331 330 330 330 328 330 329 330 327 324 326 325 326 327 327 328 328 327 327 328 327 328 328 329 331 329 330 330
333 334 334 335 335 335 335 335 335 334 336 333 333 333 333 334 334 333 333 333 333 334 334 332 335 336 334 336 333 332 333 333 332 330 329 328 327 328 328 327 326 327 328 326 324 324 323 325 327 327 326 326 326 325 325 326 328 330 328 329 329 330
332 334 335 335 334 334 333 333 332 332 332 332 332 332 333 333 333 332 332 333 335 335 336 334 334 336 334 332 331 331 330 330 329 328 327 326 325 326 327 326 325 324 325 325 322 322 322 324 324 323 324 325 325 324 325 325 326 326 326 327 329 331
332 334 334 334 333 332 332 331 330 330 330 331 331 333 332 331 331 332 334 332 333 333 335 334 333 332 331 330 328 328 328 328 327 326 324 323 323 323 323 323 324 323 322 323 323 322 322 322 321 318 322 323 322 321 322 324 323 324 326 326 327 328
332 333 333 332 332 331 330 329 329 329 328 327 330 330 331 332 333 334 334 334 334 333 332 332 331 329 328 329 326 326 326 326 325 325 323 322 321 322 323 321 321 322 322 319 319 320 320 320 318 317 318 319 319 321 322 323 321 322 324 325 325 326
332 333 333 332 332 331 331 330 328 327 328 329 330 330 330 332 332 333 333 332 330 328 328 328 329 327 326 325 323 323 323 323 323 323 322 322 322 324 320 321 319 318 320 319 316 318 318 318 315 315 315 316 314 319 319 318 320 320 323 323 323 323
331 332 332 333 332 331 329 330 329 328 329 328 330 330 330 332 332 329 328 328 327 326 326 326 326 327 325 324 322 322 321 320 320 322 318 318 318 318 318 318 318 316 315 317 317 318 317 317 311 313 314 314 310 314 317 316 315 318 321 319 321 320
331 330 331 332 332 331 331 330 330 330 330 330 330 332 331 330 328 326 324 325 324 324 324 323 323 323 322 322 322 321 320 319 318 319 317 316 316 316 316 316 316 317 314 312 312 313 317 315 314 313 310 312 311 312 310 308 312 315 315 317 318 318
330 330 331 332 331 332 331 330 330 330 331 330 330 329 327 326 325 325 323 322 322 322 321 321 321 321 321 319 319 319 319 318 318 317 317 316 315 314 314 314 314 314 313 309 309 309 312 314 313 316 314 312 309 308 308 311 312 309 312 314 315 315
330 330 330 331 331 331 330 329 328 327 327 327 325 324 322 321 321 320 320 321 321 321 320 320 319 319 319 319 317 317 317 317 316 316 316 314 313 313 313 313 313 313 312 311 309 308 307 312 313 313 313 315 316 310 308 310 309 304 311 312 313 313
330 330 331 331 331 331 329 329 329 328 328 327 324 324 324 323 321 320 320 319 318 319 318 318 318 317 317 317 315 315 315 315 315 314 316 313 312 312 312 312 314 312 311 312 309 307 306 307 307 310 311 311 314 314 312 307 303 306 303 308 310 309
330 330 331 330 329 329 328 327 327 328 328 327 326 323 323 321 321 320 318 317 317 317 317 317 316 316 316 316 315 314 314 314 314 314 315 311 310 310 311 312 313 311 312 311 308 307 306 307 305 306 310 309 310 311 309 307 306 303 304 302 301 305
330 330 330 330 328 327 328 327 326 327 327 328 325 324 323 322 320 319 317 316 315 315 315 315 315 314 314 315 317 313 313 313 313 313 315 311 310 310 309 309 309 309 309 309 311 309 307 305 305 304 305 305 306 306 306 305 304 303 302 300 299 299
329 330 330 328 327 326 328 328 326 328 328 325 325 323 322 320 318 318 315 314 313 313 313 313 313 313 313 313 313 313 312 312 312 313 313 309 309 309 308 308 308 309 309 308 308 308 306 305 305 304 303 303 301 302 302 302 301 299 299 301 297 297
329 330 329 328 327 326 327 327 327 328 326 324 323 321 319 318 317 316 314 313 313 312 312 311 311 311 311 311 312 314 311 311 312 314 311 308 308 308 308 308 308 308 308 307 306 305 305 304 303 303 302 302 300 300 300 299 297 297 296 295 294 294
328 329 328 328 327 326 327 328 329 327 326 324 323 320 318 316 315 314 313 312 311 311 310 310 310 309 309 310 310 309 311 309 310 308 307 308 308 307 308 307 307 307 306 305 305 305 302 301 301 301 300 301 300 300 300 299 298 297 295 295 294 293
327 326 327 327 326 326 327 328 328 327 325 324 321 319 317 315 314 313 312 311 310 309 309 308 308 308 307 308 309 308 308 307 307 309 308 307 307 307 307 307 306 305 304 303 303 302 300 300 300 299 298 299 299 299 299 299 299 297 297 296 295 293
326 327 326 325 326 326 327 327 327 326 324 323 320 319 316 314 313 312 312 311 310 309 308 308 307 307 307 309 308 308 308 307 307 308 308 307 307 307 306 305 304 303 302 302 302 301 300 300 299 299 299 298 297 298 298 298 297 297 296 295 295 294
325 324 324 324 325 325 325 325 325 324 322 321 319 318 316 315 313 312 312 310 310 309 308 308 307 307 309 307 307 308 307 306 306 306 306 305 306 305 305 305 304 303 302 301 301 301 299 299 299 298 298 298 298 297 297 298 297 297 297 297 296 295
324 323 323 323 323 323 322 322 322 320 319 319 319 316 315 314 313 312 311 310 309 309 308 308 308 307 306 306 306 305 306 305 306 305 305 304 303 303 303 302 301 301 301 304 300 299 299 298 298 298 297 297 297 296 297 297 298 297 297 298 298 297
323 323 322 321 319 319 319 319 319 318 318 317 316 314 313 312 312 312 311 310 309 309 308 307 307 307 305 305 305 304 304 304 304 304 303 303 303 302 301 301 300 300 299 300 300 298 299 298 298 297 297 297 296 296 296 297 297 298 298 298 298 298
Wind_Speed
7 8 7 7 6 7 10 14 12 13 13 12 11 10 9 9 8 7 6 5 4 2 1 0 0 0 1 0 2 2 2 2 2 1 1 0 1 2 3 4 5 6 7 7 8 8 9 10 10 11 10 10 10 4 1 1 1 0 4 5 5 5
7 8 7 6 5 5 6 9 6 6 6 8 9 8 6 4 6 3 6 4 2 1 0 0 0 2 0 1 1 2 1 1 2 1 1 2 2 3 4 5 7 7 7 6 6 4 5 7 9 9 10 10 6 4 1 1 1 1 3 5 5 6
8 7 7 6 5 4 5 4 4 4 4 7 6 6 3 4 3 3 3 3 1 0 1 0 1 2 1 3 2 3 2 2 2 2 2 4 4 5 5 6 6 7 6 5 3 3 3 4 5 8 7 5 5 4 3 1 1 2 3 4 5 8
8 8 7 5 5 5 5 4 4 4 4 4 4 5 3 3 3 3 3 2 1 1 0 0 4 6 4 0 1 3 3 2 2 2 4 2 5 5 6 6 6 6 4 4 3 3 3 4 4 4 5 5 5 5 4 4 2 3 3 4 5 10
7 7 8 6 7 6 5 4 4 4 4 3 4 5 4 4 3 2 2 1 1 1 0 1 2 2 3 1 1 2 2 2 2 2 3 2 3 3 3 4 4 4 3 2 3 3 3 4 4 5 5 5 5 5 5 4 3 2 4 4 5 9
8 8 7 7 7 8 8 5 4 4 4 2 4 5 4 4 3 2 2 2 1 2 1 1 2 2 2 1 2 3 3 2 2 2 2 3 3 3 4 3 3 4 3 2 3 3 3 3 4 4 4 5 5 5 5 5 4 4 4 5 5 11
8 8 8 7 7 7 6 6 5 4 4 3 3 4 4 4 4 3 2 2 2 2 2 2 2 3 3 2 3 3 3 3 3 3 3 2 3 3 3 5 5 5 5 4 5 3 2 3 3 3 4 4 4 5 5 5 5 5 5 4 5 11
7 7 7 7 6 5 5 5 5 6 5 5 4 4 4 4 4 4 3 2 2 2 2 3 3 2 4 2 3 3 3 3 4 4 2 3 4 4 3 3 3 4 4 3 4 4 3 3 3 2 3 4 4 4 4 5 5 5 5 5 4 7
9 9 8 8 7 5 5 5 5 5 5 5 4 4 4 3 3 3 2 3 2 4 3 2 3 4 2 4 2 3 3 3 3 4 2 3 3 4 4 3 3 4 3 3 3 4 3 3 3 3 3 4 4 4 3 4 4 4 4 5 5 6
10 11 9 8 7 6 6 6 6 6 5 5 5 4 3 3 3 2 3 4 4 3 5 5 4 2 2 1 1 2 2 3 3 3 2 4 4 3 4 4 4 3 3 3 3 4 2 3 3 3 3 3 4 4 4 4 3 3 3 3 4 4
10 9 8 7 6 6 6 6 6 6 5 6 5 5 4 3 3 2 3 4 4 3 4 4 3 1 0 2 2 1 3 3 4 4 2 4 2 4 4 4 4 4 4 3 3 3 2 3 4 4 3 3 4 3 3 3 3 3 3 3 3 3
11 11 10 9 8 7 7 7 6 5 6 5 4 4 4 3 4 4 3 4 3 2 2 2 1 1 1 1 2 2 3 3 3 3 2 2 4 3 3 2 2 1 1 1 3 3 3 2 4 4 4 4 3 4 5 5 4 3 3 3 3 3
10 10 11 10 9 8 6 5 5 5 5 4 4 3 3 3 3 3 4 5 4 3 3 3 1 1 1 1 2 2 1 2 2 1 1 2 0 0 1 3 3 2 1 2 2 3 3 2 3 4 4 4 3 4 4 4 5 4 4 4 4 2
10 11 10 9 7 6 5 4 4 4 3 4 4 4 3 4 4 4 4 5 4 3 3 3 2 1 1 1 1 1 1 2 2 2 1 1 2 2 3 3 3 3 3 3 3 3 4 5 5 4 4 4 4 4 4 5 5 5 4 4 4 3
11 11 10 8 7 5 5 5 4 4 4 4 4 5 4 4 4 4 4 4 4 4 4 4 3 2 3 1 0 1 1 1 1 2 3 3 2 3 4 3 3 4 3 4 4 3 4 4 4 5 5 5 5 4 3 4 4 5 5 5 5 4
6 8 8 8 6 6 6 5 5 5 5 4 5 5 5 5 4 3 3 4 4 4 3 3 2 1 1 0 0 0 1 1 2 4 5 4 4 5 2 3 3 3 5 5 5 6 5 5 4 5 5 5 5 4 5 4 5 5 4 5 5 4
8 7 8 8 8 7 7 7 6 5 5 4 5 5 5 5 5 4 3 3 3 4 3 3 3 2 0 1 1 1 2 3 4 5 5 5 5 4 3 4 5 5 4 3 5 5 5 5 5 4 4 4 4 4 5 4 4 4 4 4 4 4
4 5 7 9 9 8 7 7 6 5 4 5 5 5 5 5 5 3 3 4 3 4 4 4 3 2 2 2 3 3 4 5 5 6 6 6 5 4 5 4 5 5 5 5 5 6 6 5 4 5 5 4 5 4 4 4 4 3 5 6 7 7
3 4 7 9 9 8 8 7 6 6 6 5 5 5 5 5 4 4 4 3 3 4 3 4 3 4 6 5 5 5 6 5 5 6 6 6 5 5 5 5 5 4 3 5 4 4 4 4 4 4 5 5 4 4 3 2 4 6 6 6 7 6
3 4 6 8 9 8 7 7 7 6 6 5 5 6 5 5 4 4 4 2 4 4 5 6 5 6 6 5 5 5 6 5 5 6 6 7 6 6 5 5 5 3 4 4 6 6 6 5 4 3 5 6 3 3 3 3 6 7 6 7 6 5
4 5 7 8 8 9 8 6 5 6 6 3 5 6 6 4 5 5 4 3 5 6 6 6 6 6 6 6 6 5 6 6 5 6 6 5 3 4 4 3 2 3 4 6 7 8 8 4 6 6 4 5 6 3 1 2 6 8 7 5 5 6
4 5 5 6 7 6 5 5 6 4 5 5 5 6 6 5 5 5 6 6 6 5 6 6 5 6 6 6 6 6 6 5 4 5 5 4 4 5 4 4 2 3 4 6 5 7 8 5 5 3 5 6 6 6 2 3 5 8 6 6 5 6
3 4 3 5 7 6 3 4 5 4 6 6 5 5 5 5 6 8 7 6 5 5 7 7 5 5 6 6 6 6 5 4 5 4 5 6 5 6 5 5 5 2 2 3 5 6 8 7 2 4 1 2 4 6 6 7 3 8 5 6 5 7
4 3 3 3 6 6 8 8 8 8 6 6 6 5 7 7 7 8 8 6 6 6 7 7 6 6 5 6 6 6 5 5 5 5 5 5 5 5 5 5 5 5 2 4 5 6 6 7 6 4 4 2 2 2 4 3 7 9 3 4 7 6
5 4 3 5 7 8 10 9 8 9 9 10 7 6 8 6 6 7 7 6 5 5 6 7 6 6 6 6 5 5 6 5 6 5 5 6 5 5 4 4 4 6 6 2 4 3 6 6 8 6 2 3 4 4 2 5 8 5 5 6 4 6
4 4 5 6 7 8 9 10 9 9 9 9 9 7 8 8 6 6 6 5 5 5 6 7 6 6 6 5 6 5 5 6 6 6 5 5 4 4 5 5 5 4 6 4 4 5 5 4 5 7 7 4 2 1 4 5 3 6 4 3 1 7
5 5 4 6 6 7 8 8 10 10 9 9 9 4 5 6 7 6 6 6 5 5 5 7 6 6 5 5 5 5 6 6 6 5 4 5 6 5 4 4 4 5 5 4 5 7 6 5 3 7 7 6 6 5 6 5 5 5 6 4 4 8
4 5 4 5 5 6 8 6 7 7 8 7 8 8 7 7 7 6 7 5 5 5 5 6 6 6 5 5 5 6 5 5 6 5 5 6 5 3 5 4 4 5 5 6 6 7 6 7 6 5 6 8 7 6 6 8 5 2 4 9 5 2
6 5 5 4 5 6 9 6 5 6 7 5 8 8 6 7 7 6 8 5 6 5 6 6 6 6 5 5 5 5 5 6 6 5 5 5 4 4 5 5 6 7 7 7 6 6 7 8 8 7 6 7 7 6 5 6 8 7 5 6 9 8
6 5 5 5 5 9 10 9 9 9 10 9 7 8 6 7 6 6 7 5 4 5 5 6 5 5 5 4 5 5 6 6 6 5 4 4 4 6 6 6 7 7 7 8 7 8 8 7 7 8 8 6 8 7 6 6 8 9 4 4 6 12
6 5 5 5 6 9 9 8 8 8 10 12 10 10 8 7 6 6 7 6 5 5 5 5 5 4 5 5 6 5 6 6 5 4 5 5 6 6 6 7 8 9 9 9 8 9 9 8 8 8 9 8 8 8 7 8 8 7 6 5 8 8
7 6 6 6 7 8 8 8 8 9 10 11 11 9 10 9 7 7 7 7 5 6 5 5 4 6 6 5 6 5 5 5 5 5 6 5 6 7 7 8 8 8 8 9 9 9 8 9 9 8 8 7 7 7 7 7 5 6 6 5 5 6
7 7 5 6 7 7 8 7 6 8 9 9 9 9 9 9 6 7 6 6 5 6 5 6 6 6 4 4 5 6 5 5 5 5 6 7 7 8 8 8 8 9 9 9 9 9 9 9 8 7 7 6 7 7 7 5 5 5 4 3 4 6
7 7 7 7 8 8 8 7 7 8 8 8 8 8 7 8 6 6 6 6 5 5 6 5 5 4 3 4 5 4 4 5 5 6 7 8 8 8 8 8 8 9 9 8 9 10 9 8 8 8 7 7 7 7 6 5 4 4 5 5 6 8
8 8 8 8 7 8 7 7 7 7 7 7 8 8 7 7 7 7 5 6 5 5 6 5 5 3 4 5 4 5 5 7 7 7 8 8 8 8 8 8 8 9 8 8 9 9 8 8 8 8 8 7 7 7 6 5 5 6 5 6 7 7
10 9 8 8 7 8 7 7 8 9 8 9 8 8 7 6 6 6 6 6 6 5 6 5 4 4 4 4 5 6 7 8 8 8 8 8 8 7 8 9 8 9 9 6 9 9 7 8 9 9 8 6 7 7 6 6 5 5 6 6 6 6
10 8 8 9 8 7 8 9 8 9 9 9 10 9 9 8 7 6 6 5 6 6 6 6 5 4 5 5 6 7 8 8 8 8 8 8 9 8 9 9 8 9 9 8 9 8 7 8 8 8 7 8 7 7 6 5 5 5 5 5 5 5
Wind_Direction
136 131 131 131 130 134 146 143 143 145 146 144 145 144 142 143 139 140 133 136 117 80 66 42 47 51 216 150 205 206 195 189 196 202 204 306 317 319 307 313 331 340 346 348 349 354 345 348 347 341 336 340 351 84 88 32 20 209 186 194 194 204
139 136 133 130 129 136 139 140 140 149 147 146 146 146 139 138 139 112 139 116 95 143 83 25 352 254 106 254 282 240 234 225 239 249 267 274 290 290 305 328 335 337 342 346 356 360 338 336 336 335 337 345 356 348 35 11 313 302 211 208 199 205
137 133 127 124 129 125 123 131 144 141 142 147 151 137 129 129 93 107 96 106 138 137 142 110 279 259 213 245 248 264 255 248 257 261 274 282 293 310 322 324 330 333 338 351 2 338 319 315 318 325 331 333 317 309 303 276 211 242 240 224 210 212
141 136 129 126 122 125 135 134 139 134 132 137 125 125 117 110 118 101 113 128 150 214 181 216 267 277 300 119 296 300 275 290 292 300 291 330 329 330 325 332 326 326 342 335 324 319 316 308 305 308 313 311 308 304 299 294 266 219 239 242 231 219
138 133 131 134 134 139 143 143 137 140 145 139 128 130 125 121 127 122 136 176 180 222 237 221 270 307 343 318 279 282 314 334 356 317 323 322 307 301 325 319 324 325 316 300 299 291 297 306 309 313 312 306 304 301 298 290 281 243 231 235 246 225
142 144 142 139 142 152 152 151 149 155 151 131 137 145 135 140 135 147 178 197 224 239 267 256 272 281 289 271 266 276 274 281 299 281 291 294 292 304 307 302 304 305 300 280 273 271 248 257 284 285 286 292 292 294 290 288 283 262 233 229 242 236
149 148 144 145 150 156 153 153 157 159 152 154 145 152 165 155 151 160 197 210 221 248 260 258 247 250 250 222 240 261 266 271 269 271 274 273 293 302 308 310 315 308 309 317 311 297 269 251 249 279 283 287 288 287 284 281 277 272 263 238 240 236
152 149 146 154 158 153 149 150 160 172 166 177 158 175 191 173 151 165 188 214 228 232 235 241 244 236 237 221 236 248 260 271 268 268 252 223 257 273 276 270 273 283 291 294 294 305 310 294 274 236 273 284 293 297 290 284 284 281 275 257 244 237
160 157 159 158 160 153 152 152 161 172 168 188 177 195 188 154 163 169 173 188 214 227 222 221 219 228 229 228 233 236 240 250 262 264 247 252 241 272 289 292 291 284 286 289 295 298 308 308 307 300 287 295 298 299 283 270 267 271 269 259 250 249
170 170 164 160 158 151 161 161 174 180 177 186 192 189 166 170 183 178 169 174 183 175 185 186 197 198 195 260 295 280 265 252 242 253 203 248 243 240 259 283 280 273 276 282 287 281 300 299 303 293 280 270 281 281 290 294 291 280 268 256 248 254
176 166 160 161 148 157 168 177 185 184 172 189 186 175 171 168 176 165 161 158 157 178 165 173 153 135 134 250 275 270 273 297 291 278 206 237 233 219 231 231 226 231 236 243 262 288 326 317 316 319 321 311 301 300 287 280 290 304 304 277 258 254
171 168 162 157 158 165 178 186 186 169 183 190 174 178 163 156 179 151 119 119 128 114 94 70 66 88 135 273 279 271 259 241 253 271 231 226 208 221 223 239 252 269 296 335 322 332 318 306 311 309 316 315 313 313 315 316 311 310 303 281 256 250
174 164 159 161 167 169 174 182 169 178 186 172 170 149 151 161 141 122 123 126 100 90 94 106 116 187 207 174 237 274 341 345 315 300 265 245 218 15 12 359 3 358 25 30 4 345 334 308 313 320 318 309 319 313 312 316 310 313 309 306 290 255
178 169 160 157 158 160 160 156 164 160 151 145 150 145 143 131 127 120 113 89 85 74 64 65 47 351 29 343 311 7 15 339 335 4 42 351 46 2 28 29 353 20 15 32 6 334 354 346 331 319 322 317 322 312 318 319 317 312 309 304 296 283
188 166 150 151 147 141 134 142 146 136 131 135 130 126 122 116 111 112 93 93 94 77 66 58 46 86 59 65 38 30 349 318 345 39 33 1 35 26 38 45 13 29 4 20 5 357 360 337 328 325 319 324 318 318 323 317 320 320 320 313 312 291
207 153 142 141 131 133 137 141 139 130 117 118 118 117 114 108 108 97 95 96 90 88 79 53 34 43 60 70 186 65 308 333 24 41 35 23 33 26 10 52 30 41 27 18 13 359 357 348 336 325 320 324 320 329 334 340 338 328 319 316 319 322
188 157 142 130 123 128 133 133 127 121 122 114 108 106 94 95 89 94 97 97 98 94 78 59 31 24 35 46 7 349 352 19 39 60 52 40 42 21 34 43 33 26 49 40 24 3 355 349 336 324 318 325 329 338 356 348 336 335 334 349 338 335
182 155 144 130 130 131 129 121 117 117 109 96 86 81 88 88 86 85 87 89 89 81 70 53 47 19 56 71 54 44 39 42 56 59 57 47 37 23 39 42 44 26 34 42 27 13 350 340 334 335 330 332 336 0 3 354 352 359 14 14 9 10
146 149 134 125 124 117 110 97 92 97 91 89 84 79 86 84 89 87 86 86 76 72 66 58 65 70 71 59 53 43 49 37 51 59 57 50 32 26 34 30 44 23 28 52 41 11 345 313 333 333 335 330 339 2 357 17 21 28 26 24 23 15
130 144 135 127 126 122 119 123 114 96 85 83 82 82 72 85 86 88 72 60 75 70 67 71 68 72 74 63 57 48 53 41 45 58 58 49 31 28 23 24 24 20 22 29 29 8 360 350 334 358 344 334 339 357 5 35 33 32 26 25 25 26
148 156 154 143 138 136 130 118 107 114 114 104 99 91 82 81 83 75 86 75 72 70 74 73 69 73 69 70 64 57 57 47 43 58 62 54 35 34 23 13 4 24 36 40 22 6 359 345 22 348 349 335 332 337 24 29 49 28 25 19 23 39
140 168 164 144 131 125 122 132 126 123 118 104 101 99 94 83 80 77 70 70 69 74 75 74 74 78 83 79 76 68 58 50 50 59 64 53 46 37 28 27 352 47 23 59 44 9 359 4 25 3 329 337 333 330 338 28 49 24 15 17 21 39
148 162 148 130 124 117 89 94 111 121 115 97 60 73 96 91 87 84 70 66 67 69 76 69 62 73 82 80 82 79 68 60 51 49 60 49 41 41 24 20 18 57 35 33 56 25 19 30 12 309 274 10 347 4 338 0 343 7 12 4 24 39
142 131 126 119 109 98 95 86 79 92 80 80 99 86 86 83 83 84 74 67 57 67 71 74 66 66 70 71 76 82 80 66 59 51 63 66 49 47 28 26 24 25 57 53 24 22 23 20 32 358 15 31 290 13 333 4 349 315 18 1 40 35
134 129 121 120 119 115 107 96 96 89 97 92 86 103 97 78 82 87 87 63 59 60 71 75 70 68 72 71 67 73 79 78 72 56 63 70 63 50 45 36 33 48 37 91 49 22 15 23 33 28 58 22 359 22 42 316 318 284 345 0 19 38
123 119 124 131 136 132 132 132 129 127 131 127 129 128 121 123 106 90 85 86 65 57 68 71 67 67 67 70 69 68 74 77 74 68 68 76 74 61 48 48 35 64 60 42 104 56 25 3 34 34 36 48 73 48 335 315 10 318 347 284 76 34
130 119 128 140 148 135 133 143 143 140 138 137 130 106 100 100 106 97 95 85 79 63 62 77 70 68 68 70 71 66 71 76 78 79 78 79 69 66 62 57 49 60 59 56 54 68 44 350 351 28 22 31 45 46 37 35 10 304 327 342 359 14
111 132 141 148 148 146 134 119 110 119 122 125 125 123 120 111 102 107 91 80 76 65 62 67 73 63 62 66 68 65 70 78 83 79 81 73 77 71 71 55 58 58 61 57 57 67 57 33 54 9 14 29 25 41 50 54 41 354 294 313 308 350
141 139 142 149 134 97 94 76 94 109 110 104 115 116 113 109 106 102 96 82 77 74 69 61 63 68 60 60 65 71 72 79 80 77 77 77 71 67 67 64 50 48 46 44 47 59 66 52 47 36 26 21 26 26 30 50 30 22 11 327 310 345
139 144 143 135 115 113 126 128 141 151 138 129 125 114 113 111 109 109 100 96 90 85 80 72 60 62 66 62 67 68 72 76 80 81 75 79 75 65 58 59 55 58 58 65 55 60 64 60 56 50 49 41 38 11 28 23 29 14 10 39 336 322
141 137 138 132 121 119 127 131 145 147 140 136 134 128 126 112 112 111 110 104 97 87 77 78 76 65 68 65 66 70 76 76 75 78 76 69 65 67 60 62 64 64 62 64 61 61 60 56 57 53 48 49 50 46 42 40 23 16 22 360 338 325
136 133 133 129 120 126 140 142 155 153 145 142 142 138 132 131 132 123 118 109 101 92 84 83 79 75 63 67 76 74 79 81 80 76 70 66 61 60 64 65 64 66 65 63 61 62 58 55 53 56 52 48 53 52 50 48 35 28 25 5 343 316
126 128 143 131 124 126 135 156 154 144 137 134 128 126 127 126 132 126 123 118 115 110 103 86 76 76 67 80 91 87 84 84 75 66 65 59 56 61 66 69 71 70 68 64 63 64 62 57 57 58 59 52 53 51 53 45 44 37 19 333 345 330
129 134 134 129 137 140 147 151 142 132 127 125 122 121 124 126 127 121 122 122 123 120 110 103 90 88 105 93 84 91 88 77 69 61 61 66 70 73 75 77 74 73 69 67 66 64 64 64 60 59 56 58 49 48 47 41 38 35 22 5 11 2
133 135 133 138 140 134 133 125 121 120 116 116 118 118 121 126 130 128 125 123 121 116 111 102 100 112 96 90 91 82 74 65 59 62 69 75 76 74 76 77 75 74 70 67 67 66 60 60 58 53 51 49 49 44 36 30 32 30 23 23 17 11
138 136 136 139 140 134 127 118 116 117 116 116 116 116 114 114 116 123 128 129 125 109 102 104 99 92 79 87 82 74 64 65 70 75 79 82 81 79 77 78 73 71 71 64 68 63 59 55 51 45 46 41 47 40 30 26 25 25 32 26 20 26
136 135 138 138 133 128 126 121 117 117 118 119 124 128 129 127 126 120 121 119 109 106 104 101 100 92 88 76 74 73 75 75 78 84 83 82 82 79 75 74 73 72 71 66 68 63 56 55 49 47 45 42 45 41 33 26 27 26 30 32 37 36